Flag for Russia Weather past 2 weeks in Kaliningrad, Russia

Now
57 °F

Passing clouds.


Feels Like: 55 °F
Forecast: 52 / 60 °F
Wind: 8 mph from Southwest

Location: Kaliningrad/Khrabrovo Airport

Current Time: Jul 29, 2015 at 5:15:25 AM

Latest Report: Jul 29, 2015 at 4:30 AM


Visibility: N/A

Pressure: 29.59 "Hg

Humidity: 94%

Dew point: 55 °F

Location of KaliningradLocation

Historic Weather in Kaliningrad — Graph

°F

Kaliningrad temperature yesterday

Maximum temperature yesterday: 68 °F (at 3:30 PM)
Minimum temperature yesterday: 55 °F (at 4:00 AM)
Average temperature yesterday: 62 °F

Past Weeks' High & Low Weather Summary

 TemperatureHumidityPressure
High79 °F (Jul 25, 11:30 AM)100% (Jul 14, 4:30 AM)30.07 "Hg (Jul 14, 4:30 AM)
Low48 °F (Jul 18, 12:00 AM)43% (Jul 27, 12:30 PM)29.53 "Hg (Jul 28, 6:00 AM)
Average62 °F77%29.85 "Hg
* Reported Jul 14 4:00 AM — Jul 29 4:00 AM, Kaliningrad, Weather by CustomWeather, © 2015

Note: Actual official high and low records may vary slightly from our data, if they occured in-between our weather recording intervals... More about our weather records

Advertising

Kaliningrad weather history for previous 24 hours

 ConditionsComfort  
Time TempWeatherWind HumidityBarometerVisibility
4:00 AM
Wed, Jul 29
57 °FPassing clouds.6 mph94%29.59 "HgN/A
3:00 AM59 °FPartly cloudy.8 mph88%29.62 "HgN/A
2:00 AM59 °FPartly cloudy.6 mph94%29.62 "HgN/A
1:30 AM59 °FSprinkles. Mostly cloudy.8 mph94%29.62 "HgN/A
1:00 AM57 °FSprinkles. Partly cloudy.6 mph94%29.62 "HgN/A
12:30 AM59 °FPartly cloudy.6 mph88%29.62 "HgN/A
12:00 AM57 °FPartly cloudy.3 mph88%29.62 "HgN/A
11:30 PM
Tue, Jul 28
57 °FPartly cloudy.6 mph88%29.59 "HgN/A
11:00 PM59 °FPartly cloudy.6 mph88%29.59 "HgN/A
10:00 PM57 °FPartly sunny.3 mph94%29.59 "HgN/A
9:00 PM59 °FBroken clouds.6 mph82%29.59 "HgN/A
8:30 PM61 °FBroken clouds.3 mph77%29.59 "HgN/A
8:00 PM61 °FBroken clouds.3 mph83%29.59 "HgN/A
7:30 PM63 °FBroken clouds.3 mph77%29.59 "HgN/A
7:00 PM64 °FBroken clouds.6 mph68%29.56 "HgN/A
6:00 PM64 °FBroken clouds.1 mph83%29.56 "HgN/A
5:30 PM64 °FMore clouds than sun.1 mph88%29.56 "HgN/A
5:00 PM63 °FMostly cloudy.3 mph83%29.56 "HgN/A
4:30 PM64 °FThunderstorms. Mostly cloudy.3 mph83%29.53 "HgN/A
4:00 PM66 °FMostly cloudy.6 mph73%29.56 "HgN/A
3:30 PM68 °FBroken clouds.6 mph64%29.53 "HgN/A
3:00 PM66 °FBroken clouds.6 mph73%29.53 "HgN/A
2:30 PM64 °FSprinkles. Broken clouds.6 mph88%29.53 "HgN/A
2:00 PM64 °FMore clouds than sun.3 mph83%29.56 "HgN/A
1:30 PM64 °FMore clouds than sun.3 mph83%29.56 "HgN/A
1:00 PM64 °FSprinkles. Mostly cloudy.8 mph83%29.53 "HgN/A
12:30 PM64 °FMostly cloudy.13 mph83%29.53 "HgN/A
12:00 PM66 °FMostly cloudy.8 mph83%29.53 "HgN/A
11:00 AM64 °FMore clouds than sun.10 mph78%29.56 "HgN/A
10:30 AM64 °FMore clouds than sun.10 mph83%29.56 "HgN/A
10:00 AM64 °FMore clouds than sun.10 mph83%29.53 "HgN/A
9:30 AM64 °FMore clouds than sun.8 mph83%29.53 "HgN/A
9:00 AM64 °FMore clouds than sun.8 mph78%29.53 "HgN/A
8:30 AM63 °FPassing clouds.3 mph88%29.53 "HgN/A
8:00 AM61 °FMore clouds than sun.3 mph88%29.53 "HgN/A
7:30 AM59 °FMostly cloudy.3 mph88%29.53 "HgN/A
7:00 AM59 °FBroken clouds.3 mph88%29.53 "HgN/A
6:30 AM59 °FPartly cloudy.3 mph88%29.53 "HgN/A
6:00 AM55 °FPassing clouds.3 mph94%29.53 "HgN/A
5:00 AM55 °FClear.3 mph94%29.56 "Hg10 mi
Weather by CustomWeather, © 2015

See weather overviewHow to use our weather pages